GEFSSE_500_meanwind_000.txt.gz
Wind_Speed
19 18 16 19 19 19 18 18 16 15 13 12 12 12 13 14 16 17 17 18 19 18 17 15 15 14 13 12 11 10 9 9 10 10 9 9 7 6 5 4 4 7 8
18 20 17 16 16 16 16 15 14 13 12 11 10 12 12 13 14 15 16 17 18 19 18 16 13 12 12 11 10 9 8 8 7 8 8 8 7 5 3 2 2 3 5
14 14 13 13 13 14 14 14 12 12 11 11 10 11 10 10 9 10 12 13 15 15 15 15 14 11 10 10 9 8 7 6 6 6 6 6 6 5 5 4 3 2 2
10 10 10 10 11 11 11 12 12 12 11 10 8 8 7 5 6 7 8 9 11 12 13 14 13 11 9 8 8 7 6 5 5 5 5 5 5 6 6 5 5 3 2
6 6 5 6 8 8 8 9 9 10 10 8 6 4 3 4 5 5 6 8 10 11 12 12 12 11 9 7 5 5 4 4 4 4 4 4 5 6 6 7 6 5 4
5 2 0 2 4 4 4 5 6 6 6 6 5 4 3 4 4 5 6 7 10 12 12 11 11 10 9 7 4 2 2 3 3 3 3 5 5 5 5 6 7 6 6
3 2 3 3 2 1 2 2 1 1 1 2 3 4 4 3 3 4 5 7 9 12 14 14 13 13 11 9 5 3 2 3 4 4 4 4 5 5 5 7 7 6 4
5 5 6 5 5 6 6 6 6 6 5 2 1 2 1 2 3 4 7 11 11 11 12 13 13 14 14 12 9 5 4 5 6 6 5 3 4 4 5 6 8 8 7
8 8 9 9 10 12 12 12 13 11 9 6 3 2 3 5 6 6 9 10 11 10 10 11 13 14 16 16 13 9 7 7 8 8 8 7 6 6 6 7 9 10 9
10 10 11 12 13 15 15 15 16 14 12 10 8 7 7 7 7 7 6 7 8 10 11 12 13 15 18 18 15 12 9 9 10 11 10 9 9 8 8 10 11 12 11
11 12 14 14 14 16 16 17 17 15 14 14 14 13 13 10 9 9 6 7 8 10 12 13 15 17 19 20 17 14 12 11 12 13 12 10 11 11 11 12 13 14 12
12 13 15 16 17 17 18 18 18 17 17 18 18 19 19 18 15 11 9 9 10 10 11 12 14 15 17 20 20 15 14 13 14 15 15 13 13 15 15 14 15 15 15
14 16 17 19 21 21 21 22 22 24 24 24 24 25 24 22 18 14 13 11 11 10 11 13 13 13 15 18 20 16 14 14 14 16 16 15 15 16 17 18 18 17 16
16 17 19 21 23 26 27 26 27 28 28 26 27 28 25 21 19 18 16 14 12 11 12 15 15 17 19 19 20 18 16 16 16 17 18 18 17 19 19 19 20 19 18
16 19 22 24 24 25 26 26 27 26 24 23 22 21 20 19 18 18 19 16 14 13 14 16 16 19 22 22 22 19 18 18 17 18 20 21 20 20 18 20 21 21 20
21 21 22 24 25 28 32 34 34 33 32 28 26 23 20 20 20 21 21 19 17 16 17 17 18 19 21 23 23 22 22 21 18 19 22 24 23 22 20 21 22 23 22
27 27 28 29 29 31 34 37 38 39 40 38 34 31 28 26 23 22 21 20 19 19 19 19 20 21 21 23 25 24 25 25 22 21 22 24 25 24 23 23 24 23 24
32 35 35 35 35 37 38 38 41 42 44 45 42 38 35 32 26 22 22 21 20 21 21 23 23 24 25 26 28 28 27 27 26 23 24 26 26 25 24 24 24 23 24
32 36 38 40 40 39 40 41 43 46 46 48 48 43 40 35 29 25 23 23 22 24 26 27 27 27 28 30 31 31 30 30 29 26 25 26 27 28 27 25 25 25 24
38 41 41 42 44 46 49 49 50 51 50 51 51 44 41 38 33 27 24 26 27 28 29 30 31 32 32 32 33 33 33 32 31 29 29 27 28 29 29 29 28 28 28
40 43 46 43 43 48 53 52 51 51 53 56 56 48 45 44 38 29 26 29 30 30 31 34 36 37 38 38 37 35 33 33 32 32 31 30 30 29 30 32 30 32 33
44 44 44 41 40 43 47 48 48 50 53 57 60 61 56 48 45 35 30 30 31 32 32 35 38 39 39 40 39 37 33 32 32 33 33 32 33 33 34 35 33 34 36
38 38 38 40 42 42 41 41 41 43 46 50 53 51 47 48 49 38 33 32 31 31 31 34 37 39 37 37 38 38 34 30 32 31 33 33 35 36 36 35 34 34 35
42 38 39 44 45 48 46 39 40 37 44 44 50 53 53 46 38 32 32 31 31 32 32 33 34 35 35 35 36 37 37 33 32 31 33 35 35 37 39 37 34 32 33
49 50 51 53 50 48 51 45 41 42 46 44 46 39 36 26 20 21 27 29 31 31 31 33 35 36 36 35 35 36 36 34 33 33 32 34 36 38 38 38 34 36 35
54 57 60 61 55 49 55 50 46 41 45 38 30 22 19 19 21 24 28 30 30 31 33 35 36 37 36 34 33 34 34 33 32 32 31 35 37 38 41 41 40 39 39

GEFSSE_500_meanwind_006.txt.gz
Wind_Speed
16 17 15 14 12 10 9 8 7 7 6 6 6 7 8 9 10 11 12 12 12 11 10 9 8 6 6 6 5 5 5 5 5 5 6 6 5 3 2 2 1 2 3
16 16 15 12 10 8 6 6 6 5 3 2 3 4 4 5 6 7 9 10 10 9 8 7 5 4 3 3 3 3 3 3 3 3 4 4 4 4 4 2 1 3 4
13 11 11 10 7 6 4 4 3 2 0 1 1 3 4 5 4 4 5 7 7 7 7 5 3 2 1 1 1 1 1 2 2 2 3 3 4 5 4 3 2 3 4
9 8 7 7 6 4 2 1 1 2 3 3 4 5 6 7 5 3 3 5 6 6 6 5 4 3 1 1 1 2 2 1 1 1 1 2 3 5 5 4 3 2 2
6 5 5 5 4 3 2 2 2 4 6 6 6 7 8 8 8 7 6 7 7 7 6 5 5 4 3 3 4 4 4 3 3 2 1 1 2 4 5 5 4 4 2
5 5 5 5 4 4 5 5 4 6 9 9 7 7 7 6 6 6 7 10 10 9 7 6 6 6 6 5 5 6 7 6 5 4 3 2 1 1 2 2 2 2 2
5 5 6 6 5 6 7 7 8 10 11 11 10 7 6 6 6 6 8 12 12 10 9 7 7 7 8 8 7 7 8 9 8 6 5 4 4 3 2 1 0 1 2
7 8 8 7 7 8 9 10 11 13 15 14 12 9 6 7 8 8 9 10 10 9 10 10 9 8 8 10 10 8 8 10 11 9 7 6 6 6 5 3 2 2 3
7 8 9 10 10 11 12 14 14 15 15 14 13 10 9 9 10 10 9 9 8 9 10 10 10 9 8 9 10 9 8 10 11 12 10 9 9 10 8 7 6 5 5
7 8 8 9 11 12 13 14 15 16 15 14 13 13 13 13 13 12 11 10 9 10 10 10 9 9 9 9 10 10 8 10 11 12 13 12 11 12 11 11 10 9 7
8 8 8 9 10 11 13 15 16 16 16 15 15 15 15 17 17 18 18 16 14 13 12 10 9 8 8 9 11 11 9 8 10 12 13 14 14 13 13 14 14 12 11
10 10 10 11 11 12 13 14 15 16 17 17 18 19 19 20 21 22 23 23 20 17 15 12 10 9 8 9 10 11 10 8 8 11 13 15 17 16 15 16 17 16 14
12 13 14 14 14 14 15 15 16 17 19 18 19 19 20 20 21 22 24 25 23 21 19 17 14 12 10 9 9 9 9 10 10 9 11 15 17 18 18 18 18 18 17
16 17 18 18 18 19 20 21 21 21 21 20 19 19 20 20 21 23 24 25 25 24 22 21 19 16 13 12 10 9 9 10 11 12 12 13 17 19 20 20 20 20 20
21 22 22 22 23 24 25 26 26 26 27 27 26 24 23 23 23 25 26 26 26 25 25 24 23 20 18 17 15 11 10 11 11 13 15 15 16 19 22 23 23 22 22
29 29 29 30 29 30 31 32 32 32 33 33 33 32 29 27 26 27 28 28 28 27 27 26 26 24 22 21 19 17 15 14 14 15 17 17 18 20 22 25 26 25 25
35 35 36 36 36 36 37 38 37 37 38 38 37 37 36 33 31 30 30 30 30 30 29 29 29 28 27 25 23 22 21 20 19 19 19 20 20 21 23 24 26 28 28
39 39 40 41 42 43 43 43 44 43 42 42 41 42 42 40 38 35 33 33 33 33 33 33 33 31 30 29 27 26 25 24 24 23 23 23 23 23 24 25 26 27 29
44 44 45 45 45 47 47 48 49 50 48 47 46 47 47 46 43 40 38 38 37 36 36 37 36 34 33 33 31 30 30 28 27 27 27 27 27 26 26 26 27 27 28
49 49 49 48 48 49 50 51 53 55 55 54 53 54 54 52 50 48 45 44 44 41 39 38 38 37 36 35 35 34 33 31 30 30 29 29 29 28 27 27 27 27 28
47 47 46 47 48 49 51 53 55 58 61 61 61 60 59 59 59 58 54 50 49 48 44 41 40 39 37 36 37 37 35 33 31 31 31 30 30 29 27 27 27 28 29
43 44 45 46 48 50 51 53 56 59 62 63 63 62 60 60 61 60 59 55 54 53 49 46 42 40 38 38 38 38 35 34 34 32 32 32 32 31 29 28 28 29 31
43 44 45 46 47 48 49 50 52 53 56 62 65 63 59 56 55 53 51 52 55 55 53 50 47 43 42 41 41 41 39 35 33 32 33 34 33 32 31 31 30 31 33
42 42 43 45 46 47 48 49 51 51 49 50 54 55 53 52 51 47 43 46 51 52 53 53 51 48 47 46 45 46 45 40 34 30 31 34 34 31 30 32 33 34 35
38 38 39 40 41 43 44 46 48 49 49 50 50 50 51 49 46 44 39 40 47 50 51 53 52 51 51 50 48 46 43 40 35 30 28 29 32 31 30 32 34 36 36
33 34 36 37 38 41 43 45 47 49 50 49 48 46 46 44 41 39 36 36 43 48 49 49 49 49 48 47 44 41 40 37 32 28 26 27 29 31 31 32 35 36 36

GEFSSE_500_meanwind_012.txt.gz
Wind_Speed
9 9 8 6 3 2 1 2 4 6 8 10 12 13 13 12 10 10 11 11 11 11 11 10 11 11 12 12 11 11 11 11 11 10 10 10 9 8 7 6 4 4 4
8 7 6 4 2 1 2 3 5 6 8 9 11 12 13 13 11 9 10 11 11 12 12 11 10 10 10 11 11 11 10 9 9 9 9 10 10 8 7 5 5 3 3
6 5 3 2 2 3 5 5 6 6 7 9 11 12 12 12 11 9 9 11 12 13 13 12 12 11 11 11 11 11 10 9 8 7 8 8 9 8 7 5 4 4 4
7 5 3 2 2 4 5 5 5 6 8 10 11 12 12 11 9 8 8 10 12 12 12 12 12 12 12 12 11 11 11 10 9 7 6 7 7 6 6 5 5 5 4
7 6 5 4 4 5 6 6 5 5 7 10 12 12 12 11 8 7 8 10 11 11 11 11 11 12 12 13 12 12 12 11 10 9 6 4 5 5 5 5 5 5 4
7 7 7 6 6 8 8 7 6 6 8 10 12 13 13 12 10 8 9 10 11 10 10 11 11 11 12 13 13 13 12 11 11 11 9 6 5 6 5 5 5 6 5
9 9 9 10 10 11 11 11 10 9 10 12 13 14 13 13 11 10 10 11 11 10 10 11 11 11 11 12 13 14 13 11 11 11 11 8 7 8 6 6 6 7 8
12 13 13 13 13 14 14 14 13 13 13 13 14 14 14 14 14 13 12 11 11 10 10 11 11 10 10 11 12 14 14 13 11 12 12 10 9 10 9 8 7 8 8
12 13 14 15 16 16 16 16 15 14 13 14 14 15 16 16 16 16 15 14 13 13 13 13 12 11 10 10 11 12 14 14 12 11 12 12 12 11 11 11 10 9 10
13 12 14 14 16 17 17 17 16 15 14 14 15 16 17 18 18 19 19 18 18 18 17 16 16 14 11 10 10 11 12 13 13 12 11 12 14 14 14 13 12 11 11
14 13 14 14 16 17 17 17 17 17 17 16 17 18 20 21 22 22 23 23 23 23 22 21 20 19 15 13 11 11 11 12 12 11 11 12 14 15 16 16 15 14 13
14 14 14 14 17 18 18 19 20 20 20 20 20 22 23 24 25 25 25 25 24 24 23 23 23 23 21 17 14 13 12 12 12 11 11 12 13 14 16 17 17 17 16
17 17 18 18 19 21 22 23 24 24 24 25 25 26 26 27 27 27 27 27 27 27 27 25 23 25 25 22 19 16 14 13 13 12 12 13 13 13 15 16 18 19 19
22 23 23 25 25 26 27 26 27 28 28 28 29 30 31 31 31 32 32 32 32 32 33 31 27 26 27 27 24 21 18 17 15 14 14 15 15 15 15 15 16 18 20
27 30 30 30 31 31 32 31 30 31 31 32 32 32 34 35 35 35 35 35 35 34 34 35 33 29 28 29 28 25 23 20 19 18 16 16 17 18 17 17 17 17 19
33 34 35 35 35 36 37 37 36 36 36 36 36 35 35 37 39 39 40 40 40 39 36 35 36 34 31 30 29 29 27 25 22 22 21 19 20 20 21 21 21 20 21
39 39 40 40 41 41 42 42 42 41 41 40 40 40 38 38 40 42 43 44 45 45 43 40 39 38 36 34 33 32 31 30 28 26 26 24 23 23 25 25 26 25 24
44 44 44 45 46 46 46 46 45 44 44 44 44 43 42 41 43 45 46 47 48 49 50 47 45 43 41 39 38 36 35 34 33 31 30 29 27 26 27 29 30 29 28
48 48 48 48 49 49 48 47 46 45 44 45 45 45 45 44 44 47 49 50 52 53 53 53 51 48 46 44 43 41 40 38 37 35 33 32 31 29 29 29 31 31 30
47 47 48 47 47 46 44 43 42 42 42 43 44 45 46 45 45 47 49 51 54 55 55 55 54 52 50 49 49 46 43 41 39 37 36 35 33 32 30 29 30 31 30
41 41 41 42 42 41 41 41 42 42 43 44 44 45 46 47 48 49 50 51 52 53 52 53 52 51 52 53 52 49 46 43 41 39 37 36 35 34 31 30 30 30 30
39 39 39 41 42 42 43 44 44 45 45 45 47 47 48 49 50 50 51 51 51 50 50 49 50 51 51 53 53 50 47 43 40 38 37 37 36 35 34 33 33 32 31
42 42 43 44 45 46 47 47 48 48 48 48 48 49 49 50 51 51 51 51 51 50 48 47 48 48 49 49 50 49 46 44 42 39 38 38 37 36 36 37 37 35 33
41 42 43 44 44 46 47 48 48 48 48 48 49 49 49 49 50 51 52 53 52 51 49 47 47 46 45 44 44 44 44 44 43 40 39 39 39 37 38 39 39 36 32
38 38 39 39 39 40 42 43 44 45 45 45 46 46 47 48 49 49 50 52 53 52 50 48 46 45 43 41 39 39 41 43 44 43 41 40 39 39 38 38 37 34 31
35 35 35 35 35 36 38 40 41 42 43 44 44 45 47 48 49 48 49 51 52 52 50 48 46 44 41 38 36 37 39 42 44 45 45 41 39 39 37 34 33 32 30

GEFSSE_500_meanwind_018.txt.gz
Wind_Speed
5 5 6 7 8 10 11 12 13 13 14 15 16 17 18 16 14 14 15 17 17 17 16 15 15 15 15 14 12 11 11 11 10 10 10 10 10 9 7 6 5 5 6
4 4 5 6 7 9 10 11 11 11 12 13 14 16 17 16 14 13 14 16 17 17 16 15 14 14 14 14 13 10 9 9 9 9 10 10 10 10 9 7 5 4 3
4 4 5 5 7 8 10 10 10 9 10 12 13 15 16 16 14 12 13 16 17 17 16 15 14 14 14 14 14 11 9 7 7 8 8 9 9 9 9 9 8 6 4
5 5 6 6 7 7 8 9 8 7 8 10 12 13 15 15 14 12 12 14 15 16 17 17 16 16 15 15 15 14 11 8 6 6 6 6 6 6 7 7 8 8 6
7 8 8 8 8 8 8 8 8 8 8 9 11 12 13 14 14 13 12 13 14 15 16 17 18 18 17 17 17 16 14 10 7 6 6 5 4 4 4 5 5 6 6
8 9 10 10 10 10 10 10 10 10 11 11 12 13 14 14 14 13 13 13 13 14 15 16 18 19 19 18 17 17 16 14 9 7 7 7 5 4 4 3 3 4 4
9 10 10 11 11 12 12 13 13 13 13 14 14 14 14 14 14 15 15 15 14 14 15 16 17 18 18 18 18 17 17 16 13 9 7 8 7 6 5 5 4 4 3
10 11 11 12 12 13 13 14 14 14 14 14 14 14 14 15 15 15 16 16 16 16 17 17 18 18 18 18 18 17 17 17 16 13 9 9 9 8 8 7 7 6 5
10 11 12 12 12 13 13 13 13 13 13 13 13 13 13 13 14 15 16 16 17 17 17 17 18 19 19 19 18 17 16 16 16 15 13 10 10 10 10 9 8 8 8
12 13 13 13 13 12 12 12 12 12 13 14 13 13 13 13 13 14 15 15 15 15 16 16 16 17 19 20 20 19 17 16 15 15 14 13 11 10 11 11 11 10 9
11 12 13 13 13 13 13 13 14 14 15 16 16 16 16 16 16 16 16 15 15 16 16 17 16 17 17 18 20 21 20 17 16 15 14 14 13 12 10 11 12 13 13
11 13 15 16 16 16 17 18 19 19 19 20 21 20 20 20 20 21 20 19 18 17 17 17 17 16 17 17 18 20 20 20 18 17 16 15 15 14 12 11 11 13 14
15 16 18 20 21 21 22 23 24 24 25 25 25 25 24 24 24 25 25 24 23 21 20 19 19 18 18 17 18 19 19 20 20 20 19 18 17 16 14 14 13 13 14
20 20 21 24 26 27 27 28 29 29 29 30 30 30 29 29 28 27 28 28 28 27 25 24 23 22 22 20 19 19 20 20 20 21 22 22 21 19 17 17 16 16 16
26 25 24 26 29 31 32 32 33 33 34 34 35 35 34 33 33 32 30 30 31 31 30 28 27 26 26 25 23 22 21 21 22 22 24 25 25 24 22 21 20 20 19
31 32 31 32 34 35 36 37 37 37 37 37 37 37 37 35 35 35 35 34 33 33 32 31 31 30 29 29 29 28 26 25 25 25 26 27 28 28 27 25 24 23 23
37 38 38 38 38 39 40 41 40 40 39 37 36 36 36 36 37 37 37 36 36 35 34 33 33 32 32 32 32 33 32 30 29 29 29 30 31 32 32 30 28 27 26
41 40 40 40 40 40 40 41 41 41 40 38 37 36 36 36 37 37 39 38 38 37 35 34 34 34 35 35 35 36 36 34 33 32 32 33 34 35 35 34 33 31 30
40 39 39 39 39 39 39 39 39 39 38 38 37 37 37 38 38 39 39 40 39 37 37 36 36 37 37 38 38 38 38 37 36 36 35 37 38 38 38 37 37 35 32
37 38 38 38 38 38 38 37 37 37 37 37 37 37 38 39 40 41 41 42 42 42 41 40 39 39 39 40 41 40 39 39 38 37 37 38 39 40 40 40 39 38 35
34 36 38 38 39 40 40 39 39 38 38 38 38 39 40 41 42 43 42 43 43 43 42 42 41 40 40 41 42 41 40 39 38 37 38 39 40 40 41 41 41 40 37
33 35 36 36 38 39 40 40 40 39 38 38 39 39 40 41 42 42 42 41 41 41 41 40 40 41 40 41 42 42 40 39 39 39 39 41 40 39 41 41 41 40 38
33 33 33 34 35 36 37 38 39 38 37 36 36 36 37 38 38 38 39 39 38 39 38 38 39 39 39 39 41 42 42 40 39 38 39 40 39 38 39 39 39 40 38
32 32 33 34 35 37 37 38 38 38 38 37 36 35 35 36 36 37 38 38 38 39 40 39 40 40 41 40 40 42 43 42 41 38 37 39 39 37 35 36 38 38 37
32 33 34 36 38 39 40 39 39 40 40 40 39 38 37 37 37 38 39 40 41 41 42 43 43 43 43 42 42 42 43 43 42 40 37 37 37 35 34 34 36 37 36
33 34 35 37 39 41 42 42 42 42 42 42 41 40 39 39 39 39 40 40 42 43 44 45 45 46 45 45 44 44 44 43 41 40 37 36 36 35 33 33 34 35 35

GEFSSE_500_meanwind_024.txt.gz
Wind_Speed
7 8 8 9 10 11 13 13 14 15 16 17 18 19 18 17 16 17 17 18 18 19 19 19 19 18 18 16 13 10 8 9 10 10 9 9 7 5 3 4 4 5 6
8 9 8 9 10 11 12 12 13 13 14 15 16 16 16 15 15 15 15 16 17 17 18 19 19 19 18 17 16 12 9 7 7 8 7 7 7 7 5 3 3 3 3
9 9 8 8 9 10 11 11 11 12 12 13 13 14 13 13 13 13 13 14 14 15 16 16 17 17 17 16 16 14 12 8 5 5 5 5 5 6 6 5 4 3 3
8 7 7 8 9 10 10 10 10 10 11 11 11 11 11 11 11 11 11 11 12 13 13 14 14 14 14 14 14 14 13 11 7 4 3 3 3 3 4 4 4 4 4
6 6 6 7 8 9 9 9 9 9 10 10 9 9 9 9 9 9 9 9 10 10 11 11 12 12 12 12 11 11 12 12 10 7 4 2 2 1 1 2 2 3 3
8 7 7 8 8 8 8 8 8 8 8 8 8 8 8 8 8 8 8 8 8 9 9 9 10 10 10 10 9 9 9 10 10 10 8 3 2 3 2 1 1 0 1
9 9 9 9 9 9 8 8 8 7 7 7 7 7 8 8 8 8 9 9 9 9 9 9 9 9 9 9 8 8 7 7 8 9 9 7 3 3 4 4 3 3 2
9 9 10 10 10 10 9 9 8 7 7 7 8 8 9 9 10 10 10 10 10 10 10 9 9 9 10 10 9 8 7 7 7 7 7 7 6 3 4 6 5 5 5
9 9 10 10 10 10 10 10 9 8 8 9 9 9 10 12 12 13 13 13 13 13 12 13 13 12 12 12 11 10 9 8 7 7 7 6 5 4 4 5 7 7 7
9 9 10 10 10 11 11 11 11 11 11 12 12 13 14 15 16 16 17 17 17 17 17 17 17 17 16 15 15 13 12 11 10 9 9 8 6 4 4 4 6 7 8
13 13 13 13 13 13 14 14 15 15 15 16 17 17 18 18 19 20 20 21 21 21 21 21 21 20 19 18 17 16 15 13 12 12 12 11 10 7 5 5 5 6 7
17 17 17 17 18 18 18 19 20 20 21 21 22 22 23 23 23 24 25 25 25 25 25 25 24 24 23 22 20 19 18 16 15 14 15 15 14 13 10 8 7 7 7
20 20 21 21 22 23 23 24 25 25 26 26 27 27 27 28 28 29 30 30 30 29 29 29 29 28 27 26 25 23 21 20 18 17 17 17 18 18 16 14 12 10 10
23 24 24 25 26 27 28 29 30 30 30 31 32 32 32 32 33 33 34 34 34 34 34 34 34 33 32 31 29 27 26 24 22 21 20 20 21 21 20 19 18 16 14
26 26 27 28 29 30 32 33 34 34 34 35 35 36 36 36 36 37 37 37 38 38 38 38 39 38 37 35 33 31 30 29 27 25 24 23 24 24 24 24 23 22 20
28 29 29 29 29 30 32 33 35 36 37 37 37 39 39 39 39 39 39 38 39 40 40 40 41 41 40 38 36 35 34 33 31 29 27 27 26 27 27 28 28 27 25
30 31 31 30 30 31 32 33 34 35 36 37 38 39 40 40 40 40 39 39 40 40 40 40 40 40 39 38 38 38 37 37 35 33 31 30 29 29 30 31 32 31 31
31 32 32 32 32 32 32 33 33 34 35 36 37 38 39 39 40 40 40 40 40 41 41 41 42 40 40 38 38 38 38 37 37 35 33 32 32 32 33 33 35 35 35
33 34 35 35 34 34 34 34 34 34 35 35 36 37 38 39 40 41 41 41 42 43 43 43 43 42 42 40 39 38 37 36 36 35 34 33 33 33 33 34 35 36 37
35 36 37 36 35 35 34 34 34 35 36 36 37 38 38 39 40 41 42 42 43 43 43 44 44 44 43 41 41 40 38 36 34 34 34 34 33 33 33 34 35 37 38
36 36 36 35 34 34 34 35 35 36 36 37 37 38 38 39 40 41 42 42 43 43 43 43 43 43 42 41 42 39 37 36 34 33 34 34 34 34 33 33 34 36 38
35 35 34 33 32 34 35 35 36 36 37 38 39 39 39 39 39 40 41 41 41 40 40 40 40 40 39 39 40 38 36 34 33 34 34 34 34 34 34 34 35 35 37
32 33 32 32 33 34 34 34 34 35 36 37 38 39 40 40 40 40 40 40 40 39 38 37 37 37 36 36 37 37 36 33 33 33 34 34 34 34 35 35 35 35 36
30 31 31 32 32 31 31 31 31 32 33 35 37 38 39 40 41 41 41 41 41 41 40 38 37 36 35 34 35 36 37 35 34 33 34 35 36 36 37 36 35 35 36
28 29 30 30 29 28 26 26 27 29 31 33 35 37 38 39 40 40 41 42 42 42 42 41 39 38 37 36 36 37 37 37 36 36 34 35 37 37 38 37 36 35 35
27 28 28 27 26 24 24 24 26 28 30 32 34 35 36 38 38 39 40 41 42 43 43 43 42 41 40 39 38 38 39 38 38 38 38 36 37 37 38 37 36 34 34